Flag for Puerto Rico Weather past 2 weeks in San Juan, Puerto Rico

Now
83 °F

Scattered clouds.


Feels Like: 88 °F
Forecast: 77 / 85 °F
Wind: 13 mph from Northeast

Location: Luis Munoz Marin


UV Index: 7 (High)

Visibility: 10 mi


Pressure: 30.01 "Hg

Humidity: 68%

Dew point: 71 °F

Location of San JuanLocation

Historic Weather in San Juan

°F

San Juan temperature yesterday

Maximum temperature yesterday: 87 °F (at 11:56 AM)
Minimum temperature yesterday: 76 °F (at 4:56 AM)
Average temperature yesterday: 82 °F

Past Weeks' High & Low Weather Summary

 TemperatureHumidityPressure
High88 °F (Apr 6, 11:56 AM)89% (Apr 4, 5:56 AM)30.14 "Hg (Apr 4, 5:56 AM)
Low75 °F (Apr 12, 3:56 AM)50% (Apr 1, 12:56 PM)29.89 "Hg (Apr 15, 3:56 PM)
Average81 °F68%30.02 "Hg
* Reported Apr 1 9:56 AM — Apr 16 9:56 AM, San Juan, Weather by CustomWeather, © 2014

Note: Actual official high and low records may vary slightly from our data, if they occured in-between our weather recording intervals... More about our weather records

Advertising

Historic Weather Conditions — Data for Previous 24 hours

 ConditionsComfort  
Time TempWeatherWind HumidityBarometerVisibility
9:56 AM
Apr 16
83 °FScattered clouds.13 mph68%30.01 "Hg10 mi
8:56 AM82 °FScattered clouds.8 mph72%30.01 "Hg10 mi
7:56 AM79 °FScattered clouds.3 mph77%29.98 "Hg10 mi
6:56 AM77 °FPassing clouds.No wind82%29.98 "Hg10 mi
5:56 AM78 °FPassing clouds.No wind79%29.97 "Hg10 mi
4:56 AM77 °FPassing clouds.No wind79%29.95 "Hg10 mi
3:56 AM77 °FPassing clouds.No wind79%29.94 "Hg10 mi
2:56 AM78 °FPassing clouds.No wind76%29.94 "Hg10 mi
1:56 AM77 °FPassing clouds.No wind79%29.95 "Hg10 mi
12:56 AM78 °FPassing clouds.No wind79%29.97 "Hg10 mi
11:56 PM
Apr 15
78 °FLight rain. Partly cloudy.7 mph79%29.98 "Hg8 mi
10:56 PM79 °FPassing clouds.6 mph72%29.98 "Hg10 mi
9:56 PM80 °FPassing clouds.6 mph67%29.98 "Hg10 mi
8:56 PM79 °FPassing clouds.8 mph74%29.97 "Hg10 mi
6:56 PM82 °FScattered clouds.13 mph67%29.93 "Hg10 mi
5:56 PM83 °FScattered clouds.16 mph65%29.92 "Hg10 mi
4:56 PM85 °FScattered clouds.18 mph61%29.90 "Hg10 mi
3:56 PM86 °FScattered clouds.20 mph59%29.89 "Hg10 mi
2:56 PM87 °FScattered clouds.22 mph53%29.89 "Hg10 mi
1:56 PM87 °FScattered clouds.21 mph57%29.91 "Hg10 mi
12:56 PM87 °FScattered clouds.18 mph57%29.93 "Hg10 mi
11:56 AM87 °FScattered clouds.17 mph55%29.94 "Hg10 mi
10:56 AM86 °FScattered clouds.17 mph57%29.96 "Hg10 mi
Weather by CustomWeather, © 2014

See weather overview